EDW256 LSZH-LEMH

Flight info

Callsign EDW256
Flight time 1h 20m
Altitude 37000
Route VEBIT T50 ROTOS Z669 ULMES DCT VADAR DCT GEVEA DCT INCUS DCT BALSI DCT RETNO DCT TUPOX DCT MTG DCT DIVKO DCT VATIR DCT PIVUS DCT BODEQ DCT VERSO DCT TOSNU L16 SARGO
Aircraft A320/M-SDE3FGHIRWY/LB1

Departure

Time 2026-05-04 16:24
Airport Zürich Airport (LSZH)

Arrival

Time 2026-05-04 17:45
Airport Menorca Airport (LEMH)
Time Latitude Longitude Altitude Speed Heading
2026-05-04 15:48 47.45027 8.55913 1407 ft 0 kts
2026-05-04 16:13 47.44996 8.55908 1406 ft 4 kts
2026-05-04 16:14 47.44945 8.55916 1402 ft 4 kts 319°
2026-05-04 16:14 47.44939 8.55923 1401 ft 1 kts 308°
2026-05-04 16:17 47.44939 8.55922 1401 ft 0 kts 307°
2026-05-04 16:18 47.45070 8.55692 1405 ft 13 kts 334°
2026-05-04 16:18 47.45147 8.55638 1405 ft 12 kts 336°
2026-05-04 16:19 47.45475 8.55439 1403 ft 21 kts 334°
2026-05-04 16:19 47.45671 8.55383 1400 ft 10 kts 79°
2026-05-04 16:20 47.45648 8.55722 1406 ft 15 kts 97°
2026-05-04 16:20 47.45623 8.56065 1410 ft 17 kts 96°
2026-05-04 16:21 47.45626 8.56259 1413 ft 4 kts 33°
2026-05-04 16:22 47.45814 8.56294 1415 ft 19 kts
2026-05-04 16:22 47.46179 8.56378 1409 ft 10 kts 333°
2026-05-04 16:23 47.46250 8.56281 1407 ft 35 kts 317°
2026-05-04 16:24 47.49064 8.52425 2424 ft 174 kts 316°
2026-05-04 16:25 47.51323 8.50348 3148 ft 214 kts 330°
2026-05-04 16:26 47.53005 8.42618 5669 ft 230 kts 242°
2026-05-04 16:26 47.49423 8.37962 7209 ft 261 kts 192°
2026-05-04 16:27 47.45671 8.36784 8227 ft 286 kts 192°
2026-05-04 16:28 47.39853 8.34233 10201 ft 303 kts 212°
2026-05-04 16:28 47.35941 8.26060 11155 ft 346 kts 243°
2026-05-04 16:29 47.31376 8.13258 13332 ft 359 kts 242°
2026-05-04 16:30 47.27839 8.03355 14761 ft 369 kts 242°
2026-05-04 16:31 47.25695 7.96444 15613 ft 374 kts 248°
2026-05-04 16:31 47.22706 7.85744 16776 ft 382 kts 247°
2026-05-04 16:32 47.19626 7.74816 17810 ft 389 kts 246°
2026-05-04 16:33 47.16647 7.68152 18434 ft 393 kts 231°
2026-05-04 16:33 47.13246 7.61871 19028 ft 398 kts 231°
2026-05-04 16:34 47.09784 7.55483 19583 ft 402 kts 231°
2026-05-04 16:34 47.08042 7.52272 19850 ft 404 kts 231°
2026-05-04 16:35 47.02762 7.42537 20594 ft 409 kts 231°
2026-05-04 16:35 46.97399 7.32704 21270 ft 414 kts 231°
2026-05-04 16:36 46.95590 7.29417 21483 ft 416 kts 231°
2026-05-04 16:36 46.92572 7.23922 21814 ft 418 kts 231°
2026-05-04 16:37 46.88324 7.16185 22252 ft 421 kts 231°
2026-05-04 16:37 46.86488 7.12844 22431 ft 423 kts 231°
2026-05-04 16:37 46.82793 7.06137 22761 ft 425 kts 231°
2026-05-04 16:38 46.79701 7.00536 23018 ft 427 kts 231°
2026-05-04 16:39 46.73467 6.89278 23483 ft 431 kts 231°
2026-05-04 16:39 46.70304 6.83579 23697 ft 432 kts 231°
2026-05-04 16:40 46.66525 6.76816 23947 ft 434 kts 231°
2026-05-04 16:40 46.62571 6.70164 24201 ft 435 kts 227°
2026-05-04 16:41 46.58389 6.63788 24451 ft 436 kts 226°
2026-05-04 16:41 46.52115 6.54295 24824 ft 436 kts 226°
2026-05-04 16:42 46.45894 6.44660 25197 ft 436 kts 227°
2026-05-04 16:43 46.41752 6.38253 25446 ft 435 kts 227°
2026-05-04 16:43 46.37629 6.31905 25605 ft 436 kts 226°
2026-05-04 16:43 46.35515 6.28670 25605 ft 439 kts 226°
2026-05-04 16:44 46.26860 6.16102 25621 ft 446 kts 215°
2026-05-04 16:45 46.21285 6.12395 25867 ft 443 kts 193°
2026-05-04 16:46 46.12204 6.10290 26241 ft 439 kts 189°
2026-05-04 16:46 46.06217 6.08961 26489 ft 437 kts 189°
2026-05-04 16:47 46.00214 6.07633 26737 ft 436 kts 189°
2026-05-04 16:47 45.94225 6.06309 26987 ft 434 kts 189°
2026-05-04 16:48 45.85295 6.04350 27360 ft 432 kts 189°
2026-05-04 16:48 45.82317 6.03695 27485 ft 432 kts 189°
2026-05-04 16:49 45.76438 6.02387 27732 ft 431 kts 189°
2026-05-04 16:49 45.70520 6.01070 27982 ft 430 kts 189°
2026-05-04 16:50 45.64627 5.99768 28231 ft 428 kts 189°
2026-05-04 16:50 45.58745 5.98472 28481 ft 428 kts 189°
2026-05-04 16:51 45.52910 5.97201 28729 ft 427 kts 189°
2026-05-04 16:51 45.49975 5.96562 28854 ft 426 kts 189°
2026-05-04 16:51 45.44141 5.95126 29104 ft 425 kts 192°
2026-05-04 16:52 45.38380 5.93280 29353 ft 424 kts 193°
2026-05-04 16:52 45.35507 5.92314 29478 ft 424 kts 193°
2026-05-04 16:53 45.29810 5.90459 29731 ft 422 kts 193°
2026-05-04 16:53 45.21226 5.87793 30129 ft 421 kts 192°
2026-05-04 16:54 45.18370 5.86912 30254 ft 420 kts 192°
2026-05-04 16:55 45.06980 5.83406 30752 ft 419 kts 192°
2026-05-04 16:55 45.01333 5.81668 31000 ft 418 kts 192°
2026-05-04 16:56 44.95717 5.79928 31276 ft 417 kts 192°
2026-05-04 16:56 44.87241 5.77328 32086 ft 423 kts 192°
2026-05-04 16:57 44.84342 5.76442 32221 ft 429 kts 192°
2026-05-04 16:57 44.78532 5.74664 32851 ft 430 kts 192°
2026-05-04 16:58 44.69831 5.72007 34029 ft 423 kts 192°
2026-05-04 16:58 44.66957 5.71126 34167 ft 427 kts 192°
2026-05-04 16:59 44.61144 5.69351 34682 ft 428 kts 192°
2026-05-04 17:00 44.49380 5.65801 35008 ft 442 kts 192°
2026-05-04 17:01 44.34541 5.60467 35010 ft 440 kts 201°
2026-05-04 17:02 44.23152 5.54218 35009 ft 440 kts 201°
2026-05-04 17:03 44.14648 5.49573 34953 ft 441 kts 201°
2026-05-04 17:03 44.06107 5.44935 35009 ft 439 kts 201°
2026-05-04 17:04 43.94742 5.38767 35009 ft 438 kts 201°
2026-05-04 17:05 43.83416 5.32647 35009 ft 438 kts 201°
2026-05-04 17:06 43.74888 5.28058 35009 ft 438 kts 201°
2026-05-04 17:07 43.67325 5.23997 35009 ft 438 kts 201°
2026-05-04 17:07 43.60723 5.20450 35009 ft 438 kts 201°
2026-05-04 17:08 43.52201 5.15897 35009 ft 438 kts 201°
2026-05-04 17:09 43.46522 5.12876 35009 ft 438 kts 201°
2026-05-04 17:09 43.40877 5.09876 35009 ft 438 kts 201°
2026-05-04 17:10 43.35582 5.05817 35011 ft 437 kts 214°
2026-05-04 17:10 43.28068 4.98718 35009 ft 437 kts 214°
2026-05-04 17:11 43.23049 4.94003 35009 ft 437 kts 214°
2026-05-04 17:12 43.15554 4.86986 35009 ft 437 kts 214°
2026-05-04 17:13 43.02847 4.75585 35009 ft 437 kts 209°
2026-05-04 17:14 42.92251 4.67560 35009 ft 437 kts 209°
2026-05-04 17:15 42.84277 4.61531 35009 ft 437 kts 209°
2026-05-04 17:16 42.73665 4.53536 35009 ft 437 kts 209°
2026-05-04 17:17 42.63015 4.45553 35009 ft 437 kts 209°
2026-05-04 17:18 42.52387 4.37619 35009 ft 437 kts 209°
2026-05-04 17:19 42.41727 4.29648 35009 ft 438 kts 209°
2026-05-04 17:20 42.31080 4.21768 35009 ft 438 kts 208°
2026-05-04 17:20 42.23059 4.15865 35009 ft 438 kts 208°
2026-05-04 17:21 42.12375 4.07984 35009 ft 438 kts 209°
2026-05-04 17:22 42.07066 4.04076 35009 ft 438 kts 208°
2026-05-04 17:23 41.96356 3.96263 35009 ft 438 kts 208°
2026-05-04 17:23 41.90767 3.93062 35009 ft 438 kts 194°
2026-05-04 17:24 41.87778 3.92294 35009 ft 438 kts 189°
2026-05-04 17:25 41.75886 3.89558 35009 ft 439 kts 190°
2026-05-04 17:26 41.63849 3.86781 35009 ft 439 kts 190°
2026-05-04 17:27 41.48803 3.83345 35009 ft 439 kts 190°
2026-05-04 17:28 41.36800 3.80579 35009 ft 439 kts 190°
2026-05-04 17:29 41.18722 3.76476 35009 ft 439 kts 190°
2026-05-04 17:30 41.09630 3.77582 33546 ft 455 kts 165°
2026-05-04 17:31 41.03522 3.79864 32014 ft 458 kts 164°
2026-05-04 17:31 40.94443 3.83296 30395 ft 446 kts 165°
2026-05-04 17:32 40.88517 3.85416 29368 ft 437 kts 165°
2026-05-04 17:33 40.79457 3.88646 25872 ft 464 kts 165°
2026-05-04 17:33 40.76350 3.89765 25052 ft 462 kts 165°
2026-05-04 17:34 40.67199 3.93059 22995 ft 446 kts 165°
2026-05-04 17:34 40.64221 3.94121 22359 ft 441 kts 165°
2026-05-04 17:35 40.55358 3.97276 19445 ft 449 kts 165°
2026-05-04 17:35 40.49293 3.99433 17352 ft 453 kts 165°
2026-05-04 17:35 40.46266 4.00513 16568 ft 448 kts 165°
2026-05-04 17:36 40.43285 4.01578 15825 ft 443 kts 165°
2026-05-04 17:36 40.40325 4.02633 15094 ft 437 kts 165°
2026-05-04 17:36 40.37410 4.03669 14383 ft 432 kts 165°
2026-05-04 17:36 40.34531 4.04689 13587 ft 421 kts 165°
2026-05-04 17:37 40.31735 4.05678 12255 ft 412 kts 165°
2026-05-04 17:37 40.28971 4.06653 11027 ft 414 kts 165°
2026-05-04 17:37 40.26249 4.07614 10427 ft 402 kts 165°
2026-05-04 17:37 40.23666 4.08524 10187 ft 367 kts 165°
2026-05-04 17:38 40.21303 4.09359 10029 ft 336 kts 165°
2026-05-04 17:38 40.19150 4.10120 9998 ft 308 kts 165°
2026-05-04 17:38 40.17128 4.10832 9655 ft 296 kts 165°
2026-05-04 17:38 40.15159 4.11526 9021 ft 291 kts 165°
2026-05-04 17:39 40.11293 4.12887 7698 ft 284 kts 165°
2026-05-04 17:39 40.09404 4.13604 7028 ft 281 kts 157°
2026-05-04 17:39 40.07917 4.15118 6398 ft 276 kts 124°
2026-05-04 17:40 40.07324 4.17450 5724 ft 273 kts 90°
2026-05-04 17:40 40.07540 4.19902 4995 ft 273 kts 79°
2026-05-04 17:40 40.07848 4.22338 4346 ft 273 kts 85°
2026-05-04 17:40 40.07526 4.24712 3960 ft 265 kts 121°
2026-05-04 17:41 40.06255 4.26286 3830 ft 248 kts 158°
2026-05-04 17:41 40.04619 4.26513 3672 ft 234 kts 192°
2026-05-04 17:41 40.03069 4.25910 3352 ft 232 kts 206°
2026-05-04 17:41 40.01683 4.24976 3129 ft 225 kts 201°
2026-05-04 17:42 40.00158 4.24639 2857 ft 222 kts 186°
2026-05-04 17:42 39.98624 4.24401 2564 ft 221 kts 189°
2026-05-04 17:42 39.97123 4.24104 2270 ft 213 kts 189°
2026-05-04 17:42 39.95695 4.23810 1995 ft 203 kts 189°
2026-05-04 17:43 39.94347 4.23532 1760 ft 190 kts 189°
2026-05-04 17:43 39.93087 4.23272 1485 ft 176 kts 189°
2026-05-04 17:43 39.91954 4.23039 1277 ft 158 kts 189°
2026-05-04 17:43 39.90901 4.22822 1068 ft 147 kts 190°
2026-05-04 17:44 39.89902 4.22615 877 ft 145 kts 190°
2026-05-04 17:44 39.88914 4.22413 683 ft 142 kts 190°
2026-05-04 17:44 39.87946 4.22213 500 ft 140 kts 190°
2026-05-04 17:44 39.86986 4.22014 312 ft 138 kts 190°
2026-05-04 17:45 39.86187 4.21849 302 ft 94 kts 189°
2026-05-04 17:45 39.85710 4.21751 295 ft 38 kts 187°
2026-05-04 17:45 39.85502 4.21798 286 ft 29 kts 163°
2026-05-04 17:45 39.85409 4.21851 283 ft 9 kts 134°
2026-05-04 17:46 39.85436 4.21935 283 ft 16 kts 19°
2026-05-04 17:46 39.85547 4.21956 286 ft 15 kts
2026-05-04 17:46 39.85641 4.21974 289 ft 12 kts
2026-05-04 17:46 39.85709 4.21988 291 ft 11 kts
2026-05-04 17:47 39.85837 4.22017 295 ft 26 kts 10°
2026-05-04 17:47 39.86021 4.22055 296 ft 28 kts
2026-05-04 17:47 39.86219 4.22095 294 ft 30 kts
2026-05-04 17:47 39.86408 4.22134 294 ft 23 kts
2026-05-04 17:48 39.86527 4.22161 294 ft 12 kts 19°
2026-05-04 17:48 39.86540 4.22251 291 ft 12 kts 99°
2026-05-04 17:48 39.86538 4.22361 288 ft 10 kts 98°
2026-05-04 17:48 39.86530 4.22417 286 ft 3 kts 99°
2026-05-04 17:49 39.86529 4.22427 286 ft 0 kts 99°